Flight Track Log - Related Links

Times and Time Zones

All times are in EDT time to prevent confusion due to time zone crossing. See the SKW6528 flight status page for this flight to view local times or setup timezone preferences in your user account.

Time Position Orientation Groundspeed Altitude Reporting Facility
EDT Latitude Longitude Course Direction KTS MPH feet Rate Location/Type
Tue 13:43:01 39.8667 -104.5500 108° East 228 262 7,500  Level Denver TRACON
Tue 13:44:01 39.8333 -104.4500 113° Southeast 280 322 9,600 1,950 Climbing Denver TRACON
Tue 13:45:00 39.6652 -104.0470 123° Southeast  Level FlightAware Approximate
Tue 13:45:01 39.8000 -104.3667 117° Southeast 298 343 11,400  Level Denver TRACON
Tue 13:46:00 39.6149 -103.8945 113° Southeast  Level FlightAware Approximate
Tue 13:46:09 39.7600 -104.2497 114° Southeast 313 360 13,000  Level Denver Center
Tue 13:47:00 39.5687 -103.7393 113° Southeast  Level FlightAware Approximate
Tue 13:47:11 39.7186 -104.1328 115° Southeast 331 381 15,000  Level Denver Center
Tue 13:48:13 39.6783 -104.0186 115° Southeast 347 399 16,900 1,756 Climbing Denver Center
Tue 13:49:14 39.6364 -103.9064 116° Southeast 344 396 18,600 1,561 Climbing Denver Center
Tue 13:50:16 39.5875 -103.7808 117° Southeast 360 414 20,100 1,220 Climbing Denver Center
Tue 13:51:17 39.5639 -103.6886 108° East 359 413 21,100 1,306 Climbing Denver Center
Tue 13:52:20 39.5231 -103.5333 109° East 382 440 22,800 1,548 Climbing Denver Center
Tue 13:53:21 39.4825 -103.3794 109° East 385 443 24,300 1,073 Climbing Denver Center
Tue 13:54:23 39.4458 -103.2442 109° East 394 453 25,000 726 Climbing Denver Center
Tue 13:55:25 39.4086 -103.1031 109° East 407 468 25,800 732 Climbing Denver Center
Tue 13:56:26 39.3700 -102.9583 109° East 419 482 26,500 683 Climbing Denver Center
Tue 13:57:28 39.3303 -102.8092 109° East 433 498 27,200 683 Climbing Denver Center
Tue 13:58:29 39.2908 -102.6675 110° East 438 504 27,900 683 Climbing Denver Center
Tue 13:59:31 39.2458 -102.5008 109° East 441 507 28,600 677 Climbing Denver Center
Tue 14:00:33 39.2075 -102.3581 109° East 442 509 29,300 732 Climbing Denver Center
Tue 14:01:34 39.1614 -102.1917 110° East 442 509 30,100 634 Climbing Denver Center
Tue 14:02:36 39.1214 -102.0481 110° East 444 511 30,600 484 Climbing Denver Center
Tue 14:03:38 39.0800 -101.9047 110° East 446 513 31,100 537 Climbing Denver Center
Tue 14:04:39 39.0311 -101.7344 110° East 451 519 31,700 537 Climbing Denver Center
Tue 14:05:41 38.9894 -101.5883 110° East 452 520 32,200 532 Climbing Denver Center
Tue 14:06:43 38.9400 -101.4167 110° East 456 525 32,800 390 Climbing Denver Center
Tue 14:07:44 38.8961 -101.2739 112° Southeast 453 521 33,000 98 Climbing Denver Center
Tue 14:08:46 38.8442 -101.1028 111° Southeast 458 527 33,000  Level Denver Center
Tue 14:09:47 38.7986 -100.9564 112° Southeast 461 531 33,000  Level Denver Center
Tue 14:10:49 38.7539 -100.8083 111° Southeast 464 534 33,000  Level Denver Center
Tue 14:11:51 38.7006 -100.6381 112° Southeast 461 531 33,000  Level Denver Center
Tue 14:12:52 38.6547 -100.4922 112° Southeast 462 532 33,000  Level Denver Center
Tue 14:13:54 38.6022 -100.3242 112° Southeast 456 525 33,000  Level Denver Center
Tue 14:14:55 38.5572 -100.1814 112° Southeast 452 520 33,000  Level Denver Center
Tue 14:15:57 38.5119 -100.0375 112° Southeast 454 522 33,000  Level Denver Center
Tue 14:16:59 38.4806 -99.8589 103° East 461 531 33,000  Level Denver Center
Tue 14:17:52 38.4603 -99.7256 101° East 463 533 33,000  Level Kansas City Center
Tue 14:18:52 38.4378 -99.5703 100° East 464 534 33,000  Level Kansas City Center
Tue 14:19:53 38.4108 -99.3864 101° East 465 535 33,000  Level Kansas City Center
Tue 14:20:54 38.3861 -99.2244 101° East 465 535 33,000  Level Kansas City Center
Tue 14:21:58 38.3628 -99.0631 100° East 465 535 33,000  Level Kansas City Center
Tue 14:22:59 38.3386 -98.9025 101° East 463 533 33,000  Level Kansas City Center
Tue 14:24:00 38.3153 -98.7411 100° East 462 532 33,000  Level Kansas City Center
Tue 14:25:02 38.2914 -98.5806 101° East 462 532 33,000  Level Kansas City Center
Tue 14:26:05 38.2658 -98.4206 101° East 461 531 33,000  Level Kansas City Center
Tue 14:27:06 38.2406 -98.2597 101° East 461 531 33,000  Level Kansas City Center
Tue 14:28:09 38.2108 -98.0664 101° East 461 531 33,000  Level Kansas City Center
Tue 14:29:10 38.1850 -97.9047 101° East 462 532 33,000  Level Kansas City Center
Tue 14:30:11 38.1575 -97.7356 102° East 462 532 33,000  Level Kansas City Center
Tue 14:31:12 38.1325 -97.5756 101° East 462 532 33,000  Level Kansas City Center
Tue 14:32:16 38.1069 -97.4214 102° East 458 527 33,000  Level Kansas City Center
Tue 14:33:16 38.0806 -97.2606 102° East 461 531 33,000  Level Kansas City Center
Tue 14:34:20 38.0531 -97.1003 102° East 464 534 33,000  Level Kansas City Center
Tue 14:35:20 38.0264 -96.9408 102° East 463 533 33,000  Level Kansas City Center
Tue 14:36:21 37.9997 -96.7808 102° East 463 533 33,000  Level Kansas City Center
Tue 14:37:25 37.9722 -96.6197 102° East 466 536 33,000  Level Kansas City Center
Tue 14:38:26 37.9392 -96.4283 102° East 464 534 33,000  Level Kansas City Center
Tue 14:39:27 37.9111 -96.2678 102° East 466 536 33,000  Level Kansas City Center
Tue 14:40:30 37.8800 -96.0958 103° East 465 535 33,000  Level Kansas City Center
Tue 14:41:30 37.8514 -95.9369 103° East 464 534 33,000  Level Kansas City Center
Tue 14:42:34 37.8231 -95.7775 103° East 463 533 33,000  Level Kansas City Center
Tue 14:43:35 37.7942 -95.6183 103° East 462 532 33,000 -885 Level Kansas City Center
Tue 14:44:36 37.7650 -95.4550 103° East 468 539 31,200 -1,984 Descending Kansas City Center
Tue 14:45:39 37.7325 -95.2828 103° East 486 559 28,900 -2,226 Descending Kansas City Center
Tue 14:46:40 37.7014 -95.1106 103° East 497 572 26,600 -2,262 Descending Kansas City Center
Tue 14:47:41 37.6708 -94.9467 103° East 488 562 24,300 -1,258 Descending Kansas City Center
Tue 14:48:44 37.6358 -94.7589 103° East 467 537 24,000 -288 Descending Kansas City Center
Tue 14:49:46 37.6058 -94.6031 104° East 458 527 23,700 -1,463 Descending Kansas City Center
Tue 14:50:47 37.5764 -94.4469 103° East 456 525 21,000 -2,727 Descending Kansas City Center
Tue 14:51:47 37.5461 -94.3011 105° East 440 506 18,200 -2,419 Descending Kansas City Center
Tue 14:52:51 37.4953 -94.1750 117° Southeast 411 473 16,000 -1,200 Descending Kansas City Center
Tue 14:53:52 37.4472 -94.0511 116° Southeast 374 430 15,700 -984 Descending Kansas City Center
Tue 14:54:53 37.4114 -93.9450 113° Southeast 343 395 14,000 -1,659 Descending Kansas City Center
Tue 14:55:55 37.3736 -93.8444 115° Southeast 326 375 12,300 -1,344 Descending Kansas City Center
Tue 14:56:58 37.3181 -93.7706 133° Southeast 299 344 11,200 -1,463 Descending Kansas City Center
Tue 14:57:58 37.2636 -93.6983 133° Southeast 289 333 9,300 -1,967 Descending Kansas City Center
Tue 14:59:00 37.2119 -93.6317 134° Southeast 276 318 7,200 -1,952 Descending Kansas City Center
Tue 15:00:04 37.1583 -93.5689 137° Southeast 269 310 5,200 -1,548 Descending Kansas City Center
Tue 15:01:04 37.1006 -93.5033 138° Southeast 264 304 4,000 -1,200 Descending Kansas City Center
Tue 15:03:00 37.2457 -93.3886 28° Northeast  Level Estimated
Tue 15:10:00 37.2457 -93.3886 202° Southwest  Level Estimated
Tue 15:11:00 37.2457 -93.3886 202° Southwest  Level Estimated

Login

Don't have an account? Register now (free) for customized features, flight alerts, and more!